Flag for Germany Weather past 2 weeks in Munich, Bavaria, Germany

Now
54 °F

Clear.


Feels Like: 54 °F
Forecast: 50 / 74 °F
Wind: 1 mph from Northwest

Location: Munich / Franz Josef Strauss Airport

Current Time: Aug 29, 2014 at 1:20:49 AM

Latest Report: Aug 29, 2014 at 12:50 AM


Visibility: 10 mi

Pressure: 30.09 "Hg

Humidity: 94%

Dew point: 52 °F

Location of MunichLocation

Historic Weather in Munich — Graph

°F

Munich temperature yesterday

Maximum temperature yesterday: 70 °F (at 2:50 PM)
Minimum temperature yesterday: 45 °F (at 2:20 AM)
Average temperature yesterday: 57 °F

Past Weeks' High & Low Weather Summary

 TemperatureHumidityPressure
High72 °F (Aug 17, 3:50 PM)100% (Aug 17, 4:50 AM)30.15 "Hg (Aug 17, 4:50 AM)
Low43 °F (Aug 25, 3:50 AM)37% (Aug 21, 4:20 PM)29.74 "Hg (Aug 26, 8:20 AM)
Average58 °F76%30.00 "Hg
* Reported Aug 14 12:20 AM — Aug 29 12:20 AM, Munich, Weather by CustomWeather, © 2014

Note: Actual official high and low records may vary slightly from our data, if they occured in-between our weather recording intervals... More about our weather records

Advertising

Munich weather history for previous 24 hours

 ConditionsComfort  
Time TempWeatherWind HumidityBarometerVisibility
12:20 AM
Aug 29
54 °FClear.1 mph94%30.09 "Hg10 mi
11:50 PM
Aug 28
55 °FClear.1 mph88%30.09 "Hg10 mi
11:20 PM55 °FClear.1 mph88%30.09 "Hg10 mi
10:50 PM57 °FClear.2 mph88%30.09 "Hg10 mi
10:20 PM57 °FClear.2 mph88%30.09 "Hg10 mi
9:50 PM57 °FClear.2 mph88%30.09 "Hg10 mi
9:20 PM59 °FClear.2 mph82%30.09 "Hg10 mi
8:50 PM59 °FPassing clouds.3 mph82%30.07 "HgN/A
8:20 PM61 °FSunny.3 mph83%30.07 "Hg10 mi
7:50 PM66 °FSunny.2 mph64%30.07 "Hg10 mi
7:20 PM68 °FSunny.3 mph60%30.07 "Hg10 mi
6:50 PM70 °FSunny.3 mph57%30.07 "Hg10 mi
6:20 PM70 °FSunny.5 mph53%30.07 "Hg10 mi
5:50 PM70 °FPassing clouds.3 mph57%30.07 "HgN/A
5:20 PM70 °FPassing clouds.2 mph57%30.07 "HgN/A
4:50 PM70 °FScattered clouds.3 mph57%30.07 "HgN/A
4:20 PM70 °FScattered clouds.5 mph53%30.09 "HgN/A
3:50 PM70 °FScattered clouds.2 mph57%30.09 "HgN/A
3:20 PM70 °FScattered clouds.3 mph60%30.09 "HgN/A
2:50 PM70 °FScattered clouds.2 mph60%30.09 "HgN/A
2:20 PM68 °FScattered clouds.6 mph60%30.09 "HgN/A
1:50 PM68 °FScattered clouds.5 mph60%30.09 "HgN/A
1:20 PM68 °FScattered clouds.5 mph60%30.09 "HgN/A
12:50 PM66 °FScattered clouds.3 mph68%30.09 "HgN/A
12:20 PM66 °FScattered clouds.5 mph73%30.12 "HgN/A
11:50 AM64 °FScattered clouds.2 mph73%30.12 "HgN/A
11:20 AM63 °FScattered clouds.3 mph83%30.12 "HgN/A
10:50 AM61 °FScattered clouds.3 mph88%30.12 "HgN/A
10:20 AM57 °FFog.3 mph94%30.12 "Hg2 mi
9:50 AM55 °FSleet. Scattered clouds.3 mph94%30.12 "Hg1 mi
9:20 AM52 °FScattered clouds.2 mph100%30.12 "Hg1 mi
8:50 AM50 °FFog.2 mph100%30.12 "Hg1 mi
8:20 AM48 °FFog.2 mph100%30.12 "Hg1 mi
7:50 AM46 °FFog.1 mph100%30.12 "Hg1 mi
7:20 AM46 °FFog.1 mph100%30.12 "Hg1 mi
6:50 AM46 °FFog.1 mph93%30.12 "Hg1 mi
6:20 AM46 °FFog.2 mph100%30.09 "Hg1 mi
5:50 AM45 °FQuite cool.1 mph100%30.09 "Hg1 mi
5:20 AM45 °FSnow. Overcast.2 mph100%30.09 "Hg1 mi
4:50 AM45 °FQuite cool.1 mph100%30.09 "Hg1 mi
4:20 AM45 °FSnow. Overcast.1 mph93%30.09 "Hg1 mi
3:50 AM45 °FSnow. Overcast.2 mph93%30.09 "Hg1 mi
3:20 AM45 °FQuite cool.1 mph100%30.09 "Hg1 mi
2:50 AM45 °FSnow. Overcast.1 mph100%30.09 "Hg1 mi
2:20 AM45 °FQuite cool.2 mph100%30.09 "Hg2 mi
1:50 AM46 °FSnow. Overcast.2 mph100%30.09 "Hg2 mi
1:20 AM46 °FSnow. Overcast.2 mph100%30.09 "Hg2 mi
Weather by CustomWeather, © 2014

See weather overviewHow to use our weather pages